Weather History for Abbotsford, BC

Change the Weather History Date:

Thursday, September 26, 2013

  Actual Average Record
Temperature  
Mean Temperature 52 °F -  
Max Temperature 63 °F 60 °F 77 °F (2000)
Min Temperature 40 °F 42 °F 40 °F (2013)
Degree Days  
Heating Degree Days 14    
Growing Degree Days 2 (Base 50)    
Moisture  
Dew Point 46 °F    
Average Humidity 81    
Maximum Humidity 100    
Minimum Humidity 50    
Precipitation  
Precipitation 0.00 in 0.19 in - ()
Sea Level Pressure  
Sea Level Pressure 30.09 in    
Wind  
Wind Speed 4 mph ()    
Max Wind Speed 12 mph    
Max Gust Speed 17 mph    
Visibility 15.0 miles    
Events Fog    
Averages and records for this station are not official NWS values.
T = Trace of Precipitation, MM = Missing Value Source: Averaged Metar Reports

Daily Weather History Graph

Daily Weather History Graph

Search for Another Location

Airport:

Trip Planner

Search our weather history database for the weather conditions in past years. The results will help you decide how hot, cold, wet, or windy it might be!

Date:

Astronomy

Sep. 26, 2013 Rise Set
Actual Time 7:02 AM PDT 6:58 PM PDT
Civil Twilight 6:30 AM PDT 7:29 PM PDT
Nautical Twilight 5:53 AM PDT 8:06 PM PDT
Astronomical Twilight 5:15 AM PDT 8:44 PM PDT
Moon 11:35 PM PDT (9/26) 2:24 PM PDT (9/26)
Length of Visible Light 12h 58m
Length of Day
11h 55m
Waning Gibbous, 53% of the Moon is Illuminated
Sep 26
Waning Gibbous
Sep 26
Last Quarter
Oct 4
New
Oct 11
First Quarter
Oct 18
Full

Hourly Weather History & Observations

Time (PDT) Temp. Windchill Dew Point Humidity Pressure Visibility Wind Dir Wind Speed Gust Speed Precip Events Conditions
12:00 AM 48.2 °F - 46.4 °F 93% 30.03 in 15.0 mi NW 2.3 mph - N/A   Partly Cloudy
1:00 AM 46.4 °F - 46.4 °F 100% 30.04 in 15.0 mi Calm Calm - N/A   Partly Cloudy
2:00 AM 44.6 °F - 44.6 °F 100% 30.04 in 15.0 mi Variable 2.3 mph - N/A   Partly Cloudy
3:00 AM 42.8 °F 41.1 °F 41.0 °F 93% 30.04 in 15.0 mi East 3.5 mph - N/A Fog Shallow Fog
4:00 AM 42.8 °F - 41.0 °F 93% 30.05 in 15.0 mi NW 2.3 mph - N/A   Clear
5:00 AM 42 °F - 42 °F 99% 30.07 in 15 mi WNW 2.3 mph - -   Scattered Clouds
5:00 AM 42.8 °F - 41.0 °F 93% 30.07 in 15.0 mi West 2.3 mph - N/A   Partly Cloudy
6:00 AM 41.0 °F 39.0 °F 41.0 °F 100% 30.09 in 15.0 mi NNE 3.5 mph - N/A   Partly Cloudy
7:00 AM 42.8 °F 40.1 °F 41.0 °F 93% 30.09 in 30.0 mi NNW 4.6 mph - N/A   Partly Cloudy
8:00 AM 44.6 °F - 44.6 °F 100% 30.10 in 30.0 mi NE 2.3 mph - N/A   Partly Cloudy
9:00 AM 50.0 °F - 46.4 °F 87% 30.11 in 30.0 mi NNE 4.6 mph - N/A   Partly Cloudy
10:00 AM 53.6 °F - 44.6 °F 72% 30.12 in 30.0 mi NNE 3.5 mph - N/A   Partly Cloudy
11:00 AM 57 °F - 46 °F 56% 30.11 in 28 mi NNE 2.3 mph - -   Scattered Clouds
11:00 AM 57.2 °F - 44.6 °F 63% 30.11 in 30.0 mi North 3.5 mph - N/A   Partly Cloudy
12:00 PM 59.0 °F - 48.2 °F 67% 30.12 in 30.0 mi WSW 6.9 mph - N/A   Partly Cloudy
1:00 PM 60.8 °F - 48.2 °F 63% 30.11 in 30.0 mi Variable 3.5 mph - N/A   Partly Cloudy
2:00 PM 62.6 °F - 50.0 °F 63% 30.10 in 30.0 mi SW 5.8 mph - N/A   Partly Cloudy
3:00 PM 62.6 °F - 50.0 °F 63% 30.09 in 30.0 mi SW 11.5 mph 17.3 mph N/A   Partly Cloudy
4:00 PM 62.6 °F - 50.0 °F 63% 30.08 in 30.0 mi SSW 10.4 mph - N/A   Partly Cloudy
5:00 PM 62 °F - 48 °F 50% 30.09 in 28 mi SSW 10.4 mph - -   Scattered Clouds
5:00 PM 60.8 °F - 48.2 °F 63% 30.09 in 30.0 mi SSW 10.4 mph - N/A   Partly Cloudy
6:00 PM 59.0 °F - 48.2 °F 67% 30.09 in 30.0 mi SSW 9.2 mph - N/A   Partly Cloudy
7:00 PM 53.6 °F - 46.4 °F 77% 30.09 in 30.0 mi SSW 9.2 mph - N/A   Partly Cloudy
8:00 PM 51.8 °F - 46.4 °F 82% 30.11 in 15.0 mi SSW 3.5 mph - N/A   Partly Cloudy
9:00 PM 51.8 °F - 46.4 °F 82% 30.12 in 15.0 mi SW 3.5 mph - N/A   Partly Cloudy
10:00 PM 50.0 °F - 46.4 °F 87% 30.12 in 15.0 mi WSW 5.8 mph - N/A   Partly Cloudy
11:00 PM 49 °F - 47 °F 92% 30.12 in 15 mi East 3.5 mph - -   Partly Cloudy
11:00 PM 50.0 °F - 48.2 °F 94% 30.12 in 15.0 mi ENE 3.5 mph - N/A   Scattered Clouds